This is the latest recevied weather packets stored in our database for station/object N1HRK. If no packets are shown the sender has not sent any weather packets the latest 10 day(s).
| Time | Temp. | Humidity | Pressure | Rain* | Wind** | Luminosity | Snow |
|---|---|---|---|---|---|---|---|
| 1777480752 | 14.44° C | 64% | 1014.3 hPa | 0 mm | - | - | - |
| 1777480578 | 14.44° C | 65% | 1014.3 hPa | 0 mm | - | - | - |
| 1777480153 | 13.33° C | 65% | 1014.3 hPa | 0 mm | - | - | - |
| 1777479979 | 13.89° C | 66% | 1014.4 hPa | 0 mm | - | - | - |
| 1777479554 | 13.33° C | 67% | 1014.4 hPa | 0 mm | - | - | - |
| 1777479380 | 13.33° C | 69% | 1014.3 hPa | 0 mm | - | - | - |
| 1777478953 | 13.33° C | 68% | 1014.4 hPa | 0 mm | - | - | - |
| 1777478781 | 13.33° C | 69% | 1014.6 hPa | 0 mm | - | - | - |
| 1777478353 | 13.33° C | 68% | 1014.5 hPa | 0 mm | - | - | - |
| 1777478178 | 13.89° C | 71% | 1014.5 hPa | 0 mm | - | - | - |
| 1777477753 | 12.78° C | 70% | 1014.7 hPa | 0 mm | - | - | - |
| 1777477580 | 12.78° C | 69% | 1014.8 hPa | 0 mm | - | - | - |
| 1777477153 | 12.78° C | 71% | 1014.7 hPa | 0 mm | - | - | - |
| 1777476979 | 12.78° C | 71% | 1014.7 hPa | 0 mm | - | - | - |
| 1777476552 | 12.22° C | 72% | 1014.7 hPa | 0 mm | - | - | - |
| 1777476380 | 12.22° C | 72% | 1014.7 hPa | 0 mm | - | - | - |
| 1777475953 | 12.22° C | 73% | 1014.8 hPa | 0 mm | - | - | - |
| 1777475779 | 11.67° C | 74% | 1014.9 hPa | 0 mm | - | - | - |
| 1777475354 | 11.67° C | 75% | 1015.2 hPa | 0 mm | - | - | - |
| 1777475180 | 11.67° C | 75% | 1015.3 hPa | 0 mm | - | - | - |
| 1777474754 | 11.67° C | 74% | 1015.4 hPa | 0 mm | - | - | - |
| 1777474579 | 11.67° C | 75% | 1015.5 hPa | 0 mm | - | - | - |
| 1777474153 | 11.11° C | 76% | 1015.6 hPa | 0 mm | - | - | - |
| 1777473980 | 11.67° C | 75% | 1015.6 hPa | 0 mm | - | - | - |
| 1777473553 | 11.67° C | 76% | 1015.6 hPa | 0 mm | - | - | - |
* Rain latest hour (hover to see other rain measurements)
** Current wind speed in m/s (hover to see current wind gust speed)